This is the latest recevied weather packets stored in our database for station/object KF0TNT. If no packets are shown the sender has not sent any weather packets the latest 10 day(s).
| Time | Temp. | Humidity | Pressure | Rain* | Wind** | Luminosity | Snow |
|---|---|---|---|---|---|---|---|
| 1777996934 | 0.56° C | 94% | 1014.9 hPa | 0 mm | - | 65 W/m² | - |
| 1777996630 | 0.56° C | 94% | 1014.9 hPa | 0 mm | - | 64 W/m² | - |
| 1777996326 | 0.56° C | 94% | 1015.1 hPa | 0 mm | - | 38 W/m² | - |
| 1777996022 | 0.56° C | 94% | 1015.1 hPa | 0 mm | - | 49 W/m² | - |
| 1777995718 | 0.56° C | 94% | 1015 hPa | 0 mm | - | 50 W/m² | - |
| 1777995415 | 0.56° C | 94% | 1015 hPa | 0 mm | - | 50 W/m² | - |
| 1777995113 | 0.56° C | 94% | 1015 hPa | 0 mm | - | 42 W/m² | - |
| 1777994809 | 0.56° C | 94% | 1015 hPa | 0 mm | - | 34 W/m² | - |
| 1777994504 | 0.56° C | 94% | 1014.9 hPa | 0 mm | - | 24 W/m² | - |
| 1777994200 | 0.56° C | 94% | 1015 hPa | 0 mm | - | 34 W/m² | - |
| 1777993898 | 0.56° C | 95% | 1015.1 hPa | 0 mm | - | 26 W/m² | - |
| 1777993594 | 1.11° C | 95% | 1014.9 hPa | 0 mm | - | 28 W/m² | - |
| 1777993291 | 0.56° C | 94% | 1014.9 hPa | 0 mm | - | 26 W/m² | - |
| 1777992987 | 0.56° C | 94% | 1015 hPa | 0 mm | - | 31 W/m² | - |
| 1777992686 | 0.56° C | 94% | 1014.9 hPa | 0 mm | - | 46 W/m² | - |
| 1777992383 | 0.56° C | 94% | 1014.9 hPa | 0 mm | - | 30 W/m² | - |
| 1777992080 | 0.56° C | 94% | 1014.9 hPa | 0 mm | - | 43 W/m² | - |
| 1777991778 | 0.56° C | 94% | 1015.1 hPa | 0 mm | - | 25 W/m² | - |
| 1777991475 | 0.56° C | 94% | 1015.4 hPa | 0 mm | - | 30 W/m² | - |
| 1777991172 | 0.56° C | 95% | 1015.5 hPa | 0 mm | - | 31 W/m² | - |
| 1777990869 | 0.56° C | 95% | 1015.4 hPa | 0 mm | - | 22 W/m² | - |
| 1777990567 | 0.56° C | 95% | 1015.4 hPa | 0 mm | - | 22 W/m² | - |
| 1777989960 | 0.56° C | 95% | 1015.1 hPa | 0 mm | - | 30 W/m² | - |
| 1777989656 | 1.11° C | 95% | 1015.4 hPa | 0 mm | - | 15 W/m² | - |
| 1777989353 | 1.11° C | 94% | 1015.3 hPa | 0 mm | - | 22 W/m² | - |
* Rain latest hour (hover to see other rain measurements)
** Current wind speed in m/s (hover to see current wind gust speed)